This is the latest recevied weather packets stored in our database for station/object OK1PHM-12. If no packets are shown the sender has not sent any weather packets the latest 10 day(s).
| Time | Temp. | Humidity | Pressure | Rain* | Wind** | Luminosity | Snow |
|---|---|---|---|---|---|---|---|
| 1777732662 | 24.44° C | 32% | 1022.1 hPa | - | - | - | - |
| 1777731761 | 23.89° C | 32% | 1022.1 hPa | - | - | - | - |
| 1777730860 | 24.44° C | 33% | 1022.3 hPa | - | - | - | - |
| 1777729959 | 23.89° C | 32% | 1022.4 hPa | - | - | - | - |
| 1777729058 | 24.44° C | 32% | 1022.6 hPa | - | - | - | - |
| 1777728158 | 25.56° C | 31% | 1022.8 hPa | - | - | - | - |
| 1777727256 | 26.11° C | 30% | 1023.1 hPa | - | - | - | - |
| 1777726355 | 24.44° C | 32% | 1023.3 hPa | - | - | - | - |
| 1777725454 | 24.44° C | 32% | 1023.4 hPa | - | - | - | - |
| 1777724553 | 24.44° C | 32% | 1023.6 hPa | - | - | - | - |
| 1777723653 | 25° C | 31% | 1023.9 hPa | - | - | - | - |
| 1777722752 | 27.78° C | 29% | 1024.1 hPa | - | - | - | - |
| 1777721851 | 26.11° C | 34% | 1024.3 hPa | - | - | - | - |
| 1777720950 | 23.89° C | 33% | 1024.4 hPa | - | - | - | - |
| 1777720049 | 24.44° C | 33% | 1024.5 hPa | - | - | - | - |
| 1777719149 | 23.89° C | 32% | 1024.8 hPa | - | - | - | - |
| 1777718248 | 23.89° C | 33% | 1024.9 hPa | - | - | - | - |
| 1777717347 | 22.78° C | 35% | 1025.1 hPa | - | - | - | - |
| 1777716446 | 22.78° C | 36% | 1025.3 hPa | - | - | - | - |
| 1777715545 | 22.22° C | 36% | 1025.5 hPa | - | - | - | - |
| 1777714644 | 22.78° C | 35% | 1025.6 hPa | - | - | - | - |
| 1777713743 | 21.67° C | 36% | 1025.8 hPa | - | - | - | - |
| 1777712843 | 22.22° C | 37% | 1025.9 hPa | - | - | - | - |
| 1777711942 | 21.11° C | 37% | 1026.1 hPa | - | - | - | - |
| 1777711041 | 20.56° C | 42% | 1026.3 hPa | - | - | - | - |
* Rain since midnight (hover to see other rain measurements)
** Current wind speed in m/s (hover to see current wind gust speed)